FW7184 Weather Reports


Display with metric or nautical units.
time (UTC)temp
F
wind
direction
speed
MPH
gust
MPH
rain 1hr
in
rain 24hr
in
rain mn
in
humidity
%
barometer
mb
20260905135315 70 189 2.0 3.0 0.00 0.00 0.00 80 1011.5
20260905134810 70 196 0.0 1.0 0.00 0.00 0.00 81 1011.7
20260905134309 70 17 2.0 3.0 0.00 0.00 0.00 81 1011.7
20260905133809 70 5 4.0 5.0 0.00 0.00 0.00 81 1011.7
20260905133304 69 199 0.0 0.0 0.00 0.00 0.00 82 1011.5
20260905132803 69 2 3.0 5.0 0.00 0.00 0.00 84 1011.5
20260905132259 69 200 1.0 1.0 0.00 0.00 0.00 84 1011.9
20260905131753 69 345 3.0 3.0 0.00 0.00 0.00 83 1011.7
20260905131249 68 205 0.0 0.0 0.00 0.00 0.00 84 1011.5
20260905130744 68 4 1.0 2.0 0.00 0.00 0.00 85 1011.8
20260905130243 68 232 1.0 1.0 0.00 0.00 0.00 86 1011.8
20260905125738 67 355 1.0 2.0 0.00 0.00 0.00 86 1011.6
20260905125233 67 67 1.0 1.0 0.00 0.00 0.00 88 1011.8
20260905124730 67 11 1.0 2.0 0.00 0.00 0.00 89 1011.9
20260905124225 66 239 0.0 1.0 0.00 0.00 0.00 89 1012.0
20260905123720 66 172 0.0 0.0 0.00 0.00 0.00 90 1011.9
20260905123217 65 206 1.0 1.0 0.00 0.00 0.00 92 1012.1
20260905122716 65 223 0.0 0.0 0.00 0.00 0.00 94 1012.1
20260905122211 64 198 0.0 0.0 0.00 0.00 0.00 95 1012.1
20260905121706 63 197 0.0 0.0 0.00 0.00 0.00 98 1011.7
20260905121202 62 203 0.0 0.0 0.00 0.00 0.00 99 1012.0
20260905120701 62 204 0.0 0.0 0.00 0.00 0.00 99 1012.0
20260905120156 62 212 0.0 0.0 0.00 0.00 0.00 99 1012.1
20260905115656 62 207 0.0 0.0 0.00 0.00 0.00 99 1012.0
20260905115151 62 205 0.0 0.0 0.00 0.00 0.00 99 1011.8
20260905114650 62 204 0.0 0.0 0.00 0.00 0.00 99 1011.7
20260905114149 61 203 0.0 0.0 0.00 0.00 0.00 99 1011.8
20260905113643 61 204 0.0 0.0 0.00 0.00 0.00 99 1011.7
20260905113139 61 204 0.0 0.0 0.00 0.00 0.00 99 1011.6
20260905112639 60 204 0.0 0.0 0.00 0.00 0.00 99 1011.6
20260905112135 60 204 0.0 0.0 0.00 0.00 0.00 99 1011.5
20260905111635 60 204 0.0 0.0 0.00 0.00 0.00 99 1011.1
20260905111134 60 201 0.0 0.0 0.00 0.00 0.00 99 1011.1
20260905110633 60 198 0.0 0.0 0.00 0.00 0.00 99 1011.0
20260905110128 60 209 0.0 0.0 0.00 0.00 0.00 99 1011.1
20260905105624 59 207 0.0 0.0 0.00 0.00 0.00 99 1010.9
20260905105122 59 204 0.0 0.0 0.00 0.00 0.00 99 1011.0
20260905104618 59 204 0.0 0.0 0.00 0.00 0.00 99 1010.9
20260905104113 59 204 0.0 0.0 0.00 0.00 0.00 99 1011.2
20260905103608 59 206 0.0 0.0 0.00 0.00 0.00 99 1010.9
20260905103104 59 205 0.0 0.0 0.00 0.00 0.00 99 1011.2
20260905102554 59 205 0.0 0.0 0.00 0.00 0.00 99 1011.2
20260905102051 60 205 0.0 0.0 0.00 0.00 0.00 99 1011.1
20260905101549 60 205 0.0 0.0 0.00 0.00 0.00 99 1010.9
20260905101047 60 206 0.0 0.0 0.00 0.00 0.00 99 1011.0
20260905100544 60 207 0.0 0.0 0.00 0.00 0.00 99 1011.0
20260905100043 60 205 0.0 0.0 0.00 0.00 0.00 99 1010.9
20260905095538 60 208 0.0 0.0 0.00 0.00 0.00 99 1010.7
20260905095033 60 201 0.0 0.0 0.00 0.00 0.00 99 1010.9
20260905094528 60 201 0.0 0.0 0.00 0.00 0.00 99 1011.0
20260905094027 60 205 0.0 0.0 0.00 0.00 0.00 99 1010.6
20260905093522 60 202 0.0 0.0 0.00 0.00 0.00 99 1010.7
20260905093019 60 204 0.0 0.0 0.00 0.00 0.00 99 1010.8
20260905092519 61 204 0.0 0.0 0.00 0.00 0.00 99 1010.6
20260905092014 61 202 0.0 0.0 0.00 0.00 0.00 99 1010.7
20260905091513 61 204 0.0 0.0 0.00 0.00 0.00 99 1010.7
20260905091008 61 202 0.0 0.0 0.00 0.00 0.00 99 1010.6
20260905090503 61 201 0.0 0.0 0.00 0.00 0.00 99 1010.6
20260905090003 61 202 0.0 0.0 0.00 0.00 0.00 99 1010.7
20260905085501 62 202 0.0 0.0 0.00 0.00 0.00 99 1010.7
20260905084957 62 204 0.0 0.0 0.00 0.00 0.00 99 1010.6
20260905084457 62 205 0.0 0.0 0.00 0.00 0.00 99 1010.5
20260905083951 62 202 0.0 0.0 0.00 0.00 0.00 99 1010.8
20260905083447 62 202 0.0 0.0 0.00 0.00 0.00 99 1010.5
20260905082943 62 204 0.0 0.0 0.00 0.00 0.00 99 1010.7
20260905082439 63 206 0.0 0.0 0.00 0.00 0.00 98 1010.6
20260905081933 63 202 0.0 0.0 0.00 0.00 0.00 98 1010.7
20260905081428 63 199 0.0 0.0 0.00 0.00 0.00 98 1010.9
20260905080927 63 200 0.0 0.0 0.00 0.00 0.00 98 1010.7
20260905080422 64 202 0.0 0.0 0.00 0.00 0.00 97 1010.7
20260905075921 64 203 0.0 0.0 0.00 0.00 0.00 97 1010.5
20260905075415 64 201 0.0 0.0 0.00 0.00 0.00 97 1010.8
20260905074914 64 203 0.0 0.0 0.00 0.00 0.00 97 1010.7
20260905074410 64 201 0.0 0.0 0.00 0.00 0.00 97 1010.5
20260905073906 64 200 0.0 0.0 0.00 0.00 0.00 97 1010.7
20260905073401 64 202 0.0 0.0 0.00 0.00 0.00 97 1010.5
20260905072856 65 199 0.0 0.0 0.00 0.00 0.00 97 1010.4
20260905072350 65 202 0.0 0.0 0.00 0.00 0.00 97 1010.3
20260905071846 65 203 0.0 0.0 0.00 0.00 0.00 96 1010.6
20260905071338 65 201 0.0 0.0 0.00 0.00 0.00 96 1010.7
20260905070837 66 201 0.0 0.0 0.00 0.00 0.00 95 1010.6
20260905070334 66 200 0.0 0.0 0.00 0.00 0.00 95 1010.7
20260905065832 66 200 0.0 0.0 0.00 0.00 0.00 94 1010.8
20260905065331 66 203 0.0 0.0 0.00 0.00 0.00 93 1010.6
20260905064826 66 202 0.0 0.0 0.00 0.00 0.00 93 1010.8
20260905064322 66 202 0.0 0.0 0.00 0.00 0.00 93 1011.0
20260905063820 66 202 0.0 0.0 0.00 0.00 0.00 93 1010.8
20260905063317 66 200 0.0 0.0 0.00 0.00 0.00 93 1010.6
20260905062813 66 202 0.0 0.0 0.00 0.00 0.00 93 1010.8
20260905062313 67 201 0.0 0.0 0.00 0.00 0.00 93 1010.8
20260905061808 67 200 0.0 0.0 0.00 0.00 0.00 94 1010.8
20260905061302 67 200 0.0 0.0 0.00 0.00 0.00 94 1010.8
20260905060756 68 202 0.0 0.0 0.00 0.00 0.00 91 1011.0
20260905060253 67 206 0.0 0.0 0.00 0.00 0.00 92 1011.0
20260905055752 67 208 0.0 0.0 0.00 0.00 0.00 92 1010.9
20260905055247 67 194 0.0 0.0 0.00 0.00 0.00 91 1011.0
20260905054742 66 181 1.0 1.0 0.00 0.00 0.00 92 1010.9
20260905054238 66 204 0.0 0.0 0.00 0.00 0.00 94 1011.1
20260905053737 66 202 0.0 0.0 0.00 0.00 0.00 96 1011.1
20260905053233 65 194 0.0 0.0 0.00 0.00 0.00 98 1011.5
20260905052732 65 223 1.0 1.0 0.00 0.00 0.00 98 1011.3
20260905052227 65 195 0.0 0.0 0.00 0.00 0.00 98 1011.1
20260905051727 65 202 0.0 0.0 0.00 0.00 0.00 98 1011.5
20260905051224 65 216 0.0 0.0 0.00 0.00 0.00 98 1011.8
20260905050720 65 204 0.0 0.0 0.00 0.00 0.00 98 1011.5
20260905050216 65 204 0.0 0.0 0.00 0.00 0.00 98 1011.6
20260905045716 65 207 0.0 0.0 0.00 0.00 0.00 98 1011.6
20260905045211 65 202 0.0 0.0 0.00 0.00 0.00 98 1011.7
20260905044706 65 201 0.0 0.0 0.00 0.00 0.00 98 1011.8
20260905044201 65 203 0.0 0.0 0.00 0.00 0.00 97 1012.0
20260905043700 66 197 0.0 0.0 0.00 0.00 0.00 97 1011.7
20260905043154 65 200 0.0 0.0 0.00 0.00 0.00 97 1011.7
20260905042649 65 200 0.0 0.0 0.00 0.00 0.00 98 1011.7
20260905042148 65 200 0.0 0.0 0.00 0.00 0.00 98 1011.7
20260905041644 65 200 0.0 0.0 0.00 0.00 0.00 98 1011.6
20260905041139 65 202 0.0 0.0 0.00 0.00 0.00 99 1011.5
20260905040635 65 201 0.0 0.0 0.00 0.00 0.00 99 1011.7
20260905040133 66 202 0.0 0.0 0.00 0.00 0.00 99 1011.8
20260905035628 66 201 0.0 0.0 0.00 0.26 0.26 99 1011.7
20260905035125 66 201 0.0 0.0 0.00 0.26 0.26 99 1011.9
20260905034621 66 200 0.0 0.0 0.00 0.26 0.26 99 1011.6
20260905034120 66 201 0.0 0.0 0.00 0.26 0.26 99 1011.7
20260905033619 66 202 0.0 0.0 0.00 0.26 0.26 99 1012.0
20260905033116 65 200 0.0 0.0 0.00 0.26 0.26 99 1011.8
20260905032616 65 204 0.0 0.0 0.00 0.26 0.26 99 1011.8
20260905032115 65 202 0.0 0.0 0.00 0.26 0.26 99 1011.9
20260905031611 65 201 0.0 0.0 0.00 0.26 0.26 99 1011.9
20260905031111 65 204 0.0 0.0 0.00 0.26 0.26 99 1012.1
20260905030606 65 196 0.0 0.0 0.00 0.26 0.26 99 1012.0
20260905025557 65 200 0.0 0.0 0.00 0.26 0.26 99 1011.9
20260905025053 65 204 0.0 0.0 0.00 0.26 0.26 99 1011.8
20260905024548 65 200 0.0 0.0 0.00 0.26 0.26 99 1011.8
20260905024043 65 200 0.0 0.0 0.00 0.26 0.26 98 1012.0
20260905023538 65 200 0.0 0.0 0.00 0.26 0.26 98 1012.0
20260905023033 66 200 0.0 0.0 0.00 0.26 0.26 98 1011.7
20260905022532 66 201 0.0 0.0 0.00 0.26 0.26 98 1011.7
20260905022028 66 202 0.0 0.0 0.00 0.26 0.26 98 1011.8
20260905021527 66 198 0.0 0.0 0.00 0.26 0.26 97 1011.8
20260905021023 66 200 0.0 0.0 0.00 0.26 0.26 97 1011.8
20260905020522 66 200 0.0 0.0 0.00 0.26 0.26 97 1011.6
20260905020018 66 197 0.0 0.0 0.00 0.26 0.26 96 1011.9
20260905015515 67 197 0.0 0.0 0.00 0.26 0.26 96 1012.0
20260905015015 67 199 0.0 0.0 0.00 0.26 0.26 96 1011.9
20260905014510 67 202 0.0 0.0 0.00 0.26 0.26 95 1011.9
20260905014006 67 183 0.0 0.0 0.00 0.26 0.26 95 1011.9
20260905013502 67 195 0.0 0.0 0.00 0.26 0.26 95 1011.9
20260905012957 68 195 0.0 0.0 0.00 0.26 0.26 94 1011.8
20260905012452 68 195 0.0 0.0 0.00 0.26 0.26 94 1011.5
20260905011949 68 198 0.0 0.0 0.00 0.26 0.26 93 1011.7
20260905011444 68 195 0.0 0.0 0.00 0.26 0.26 93 1011.7
20260905010940 68 195 0.0 0.0 0.00 0.26 0.26 94 1011.6
20260905010435 69 194 0.0 0.0 0.00 0.26 0.26 93 1011.5
20260905005930 69 200 0.0 0.0 0.00 0.26 0.26 93 1011.9
20260905005426 69 190 0.0 0.0 0.00 0.26 0.26 93 1012.1
20260905004926 69 195 0.0 0.0 0.00 0.26 0.26 94 1011.9
20260905004421 69 195 0.0 0.0 0.00 0.26 0.26 93 1011.8
20260905003917 69 198 0.0 0.0 0.00 0.26 0.26 92 1011.7
20260905003412 69 194 0.0 0.0 0.00 0.26 0.26 92 1011.3
20260905002908 70 189 0.0 0.0 0.00 0.26 0.26 92 1011.5
20260905002407 70 197 0.0 0.0 0.00 0.26 0.26 92 1011.3
20260905001856 70 195 0.0 0.0 0.00 0.26 0.26 91 1011.3
20260905001356 71 200 0.0 0.0 0.00 0.26 0.26 90 1011.2
20260905000851 71 200 0.0 0.0 0.00 0.26 0.26 89 1011.3
20260905000348 71 191 0.0 0.0 0.00 0.26 0.26 88 1011.7
20260904235842 72 198 0.0 0.0 0.00 0.26 0.26 86 1011.2
20260904235338 72 198 0.0 0.0 0.00 0.26 0.26 84 1011.3
20260904234832 73 196 0.0 0.0 0.00 0.26 0.26 83 1011.3
20260904234333 73 199 0.0 0.0 0.00 0.26 0.26 81 1011.3
20260904233829 74 194 0.0 0.0 0.00 0.26 0.26 79 1011.5
20260904233324 74 197 0.0 0.0 0.00 0.26 0.26 78 1011.3
20260904232820 75 196 0.0 0.0 0.00 0.26 0.26 78 1011.3
20260904232317 75 197 0.0 0.0 0.00 0.26 0.26 78 1011.2
20260904231813 75 195 0.0 0.0 0.00 0.26 0.26 76 1011.1
20260904231307 76 172 0.0 0.0 0.00 0.26 0.26 75 1011.2
20260904230803 76 195 0.0 0.0 0.00 0.26 0.26 75 1011.2
20260904230301 76 194 0.0 0.0 0.00 0.26 0.26 75 1011.1
20260904225756 77 193 0.0 0.0 0.00 0.26 0.26 74 1011.0
20260904225249 77 191 0.0 0.0 0.00 0.26 0.26 73 1011.3
20260904224749 77 193 0.0 0.0 0.00 0.26 0.26 73 1011.1
20260904224244 77 195 0.0 0.0 0.00 0.26 0.26 73 1011.3
20260904223743 78 193 0.0 0.0 0.00 0.26 0.26 73 1011.2
20260904223238 78 195 0.0 0.0 0.00 0.26 0.26 73 1011.3
20260904222734 78 202 0.0 0.0 0.00 0.26 0.26 71 1011.3
20260904222224 78 176 0.0 1.0 0.00 0.26 0.26 70 1011.1
20260904221723 78 192 1.0 2.0 0.00 0.26 0.26 69 1011.1
20260904221218 79 190 0.0 0.0 0.00 0.26 0.26 69 1011.1
20260904220719 79 196 1.0 1.0 0.00 0.26 0.26 69 1011.2
20260904220214 79 196 0.0 0.0 0.00 0.26 0.26 70 1011.1
20260904215714 80 182 0.0 0.0 0.00 0.26 0.26 68 1011.1
20260904215209 80 198 0.0 0.0 0.00 0.26 0.26 69 1010.8
20260904214704 80 190 0.0 0.0 0.00 0.26 0.26 68 1011.1
20260904214200 80 189 0.0 0.0 0.00 0.26 0.26 65 1011.0
20260904213658 81 190 0.0 0.0 0.00 0.26 0.26 64 1010.9
20260904213154 81 46 2.0 2.0 0.00 0.26 0.26 63 1011.0
20260904212644 81 224 2.0 3.0 0.00 0.26 0.26 63 1010.7
20260904212143 81 189 0.0 0.0 0.00 0.26 0.26 64 1010.9
20260904211638 81 106 1.0 1.0 0.00 0.26 0.26 62 1011.1
20260904211134 81 31 1.0 1.0 0.00 0.26 0.26 62 1011.1
20260904210633 82 56 1.0 1.0 0.00 0.26 0.26 60 1011.1
20260904210129 82 184 0.0 1.0 0.00 0.26 0.26 59 1011.2
20260904205625 82 171 0.0 0.0 0.00 0.26 0.26 59 1011.1
20260904205121 81 168 0.0 1.0 0.00 0.26 0.26 59 1010.9
20260904204616 81 186 1.0 1.0 0.00 0.26 0.26 60 1011.2
20260904204112 81 255 1.0 1.0 0.00 0.26 0.26 60 1011.2
20260904203608 81 188 0.0 0.0 0.00 0.26 0.26 62 1011.0
20260904203105 81 351 2.0 2.0 0.00 0.26 0.26 60 1011.2
20260904202600 82 240 0.0 1.0 0.00 0.26 0.26 60 1011.3
20260904202057 82 155 1.0 2.0 0.00 0.26 0.26 59 1011.6
20260904201556 82 278 1.0 2.0 0.00 0.26 0.26 59 1011.5
20260904201051 82 163 1.0 1.0 0.00 0.26 0.26 60 1011.3
20260904200549 82 189 0.0 0.0 0.00 0.26 0.26 58 1011.2
20260904200046 82 182 1.0 1.0 0.00 0.26 0.26 57 1011.6
20260904195544 82 114 2.0 3.0 0.00 0.26 0.26 58 1011.2
20260904195044 83 49 1.0 1.0 0.00 0.26 0.26 56 1011.3
20260904194538 83 137 2.0 3.0 0.00 0.26 0.26 55 1011.6
20260904194033 83 288 0.0 1.0 0.00 0.26 0.26 56 1011.3
20260904193528 83 213 0.0 1.0 0.00 0.26 0.26 57 1011.5
20260904193025 83 163 0.0 1.0 0.00 0.26 0.26 58 1011.6
20260904192523 83 14 3.0 6.0 0.00 0.26 0.26 57 1011.5
20260904192020 83 22 2.0 3.0 0.00 0.26 0.26 57 1011.5
20260904191516 83 206 0.0 0.0 0.00 0.26 0.26 61 1011.6
20260904191012 83 199 0.0 0.0 0.00 0.26 0.26 62 1011.9
20260904190507 83 193 2.0 2.0 0.00 0.26 0.26 62 1011.7
20260904190004 83 227 0.0 1.0 0.00 0.26 0.26 61 1012.1
20260904185500 82 204 0.0 1.0 0.00 0.26 0.26 64 1012.1
20260904184954 82 239 0.0 1.0 0.00 0.26 0.26 64 1011.9
20260904184448 82 50 2.0 2.0 0.00 0.26 0.26 63 1012.0
20260904183944 83 217 0.0 1.0 0.00 0.26 0.26 63 1011.9
20260904183439 82 56 1.0 1.0 0.00 0.26 0.26 63 1011.9
20260904182934 82 158 1.0 1.0 0.00 0.26 0.26 65 1012.2
20260904182430 83 163 0.0 2.0 0.00 0.26 0.26 63 1011.9
20260904181924 83 16 5.0 7.0 0.00 0.26 0.26 63 1012.2
20260904181419 82 9 1.0 2.0 0.00 0.26 0.26 66 1012.3
20260904180914 82 275 2.0 3.0 0.00 0.26 0.26 64 1012.3
20260904180409 82 219 0.0 1.0 0.00 0.26 0.26 65 1012.0
20260904175904 82 325 0.0 1.0 0.00 0.26 0.26 67 1012.0
20260904175403 82 213 0.0 0.0 0.00 0.26 0.26 68 1012.2
20260904174903 82 205 0.0 0.0 0.00 0.26 0.26 66 1011.9
20260904174358 83 337 0.0 1.0 0.00 0.26 0.26 67 1012.2
20260904173854 82 168 3.0 5.0 0.00 0.26 0.26 67 1012.1
20260904173354 81 77 2.0 3.0 0.00 0.26 0.26 70 1012.2
20260904172850 81 166 0.0 0.0 0.00 0.26 0.26 67 1012.0
20260904172349 82 203 0.0 0.0 0.00 0.26 0.26 67 1012.2
20260904171845 82 122 0.0 0.0 0.00 0.26 0.26 65 1011.9
20260904171340 81 211 2.0 3.0 0.00 0.26 0.26 65 1012.4
20260904170836 81 298 1.0 1.0 0.00 0.26 0.26 68 1012.2
20260904170331 81 260 0.0 0.0 0.00 0.26 0.26 69 1011.9
20260904165827 81 262 0.0 1.0 0.00 0.26 0.26 70 1012.2
20260904165325 80 30 1.0 1.0 0.00 0.26 0.26 72 1012.2
20260904164821 80 236 0.0 1.0 0.00 0.26 0.26 72 1012.4
20260904164315 79 210 0.0 1.0 0.00 0.26 0.26 75 1012.4
20260904163811 78 274 2.0 2.0 0.00 0.26 0.26 76 1012.4
20260904163306 78 26 2.0 2.0 0.00 0.26 0.26 78 1012.3
20260904162805 78 182 1.0 1.0 0.00 0.26 0.26 78 1012.0
20260904162300 78 183 0.0 0.0 0.00 0.26 0.26 76 1012.2
20260904161755 79 190 0.0 0.0 0.00 0.26 0.26 75 1012.4
20260904161250 80 344 4.0 7.0 0.00 0.26 0.26 72 1012.0
20260904160746 80 263 1.0 2.0 0.00 0.26 0.26 73 1012.2
20260904160241 80 200 1.0 1.0 0.00 0.26 0.26 72 1012.4
20260904155741 80 206 0.0 1.0 0.00 0.26 0.26 73 1012.3
20260904155241 80 211 2.0 3.0 0.00 0.26 0.26 73 1012.1
20260904154739 80 201 1.0 1.0 0.00 0.26 0.26 72 1012.0
20260904154234 80 185 1.0 2.0 0.00 0.26 0.26 73 1012.3
20260904153730 80 31 4.0 5.0 0.00 0.26 0.26 72 1012.7
20260904153225 79 242 1.0 1.0 0.00 0.26 0.26 75 1012.4
20260904152721 80 307 2.0 6.0 0.00 0.26 0.26 74 1012.5
20260904152216 79 203 2.0 3.0 0.00 0.26 0.26 74 1012.5
20260904151711 79 201 1.0 1.0 0.00 0.26 0.26 76 1012.4
20260904151210 79 150 1.0 1.0 0.00 0.26 0.26 74 1012.4
20260904150706 79 193 1.0 1.0 0.00 0.26 0.26 74 1012.6
20260904150201 79 239 1.0 2.0 0.00 0.26 0.26 75 1012.5
20260904145659 79 123 1.0 2.0 0.00 0.26 0.26 75 1012.5
20260904145154 80 209 1.0 1.0 0.00 0.26 0.26 77 1012.6
20260904144650 79 66 2.0 3.0 0.00 0.26 0.26 77 1012.6
20260904144146 79 56 1.0 1.0 0.00 0.26 0.26 79 1012.7
20260904143641 79 181 1.0 2.0 0.00 0.26 0.26 81 1012.6
20260904143138 80 159 1.0 2.0 0.00 0.26 0.26 80 1012.5
20260904142634 78 157 0.0 0.0 0.00 0.26 0.26 83 1012.6
20260904142130 77 215 1.0 1.0 0.00 0.26 0.26 84 1012.8
20260904141624 76 209 0.0 0.0 0.00 0.26 0.26 87 1012.6
20260904141120 76 245 1.0 1.0 0.00 0.26 0.26 88 1012.8
20260904140616 75 178 1.0 1.0 0.00 0.26 0.26 89 1012.5
20260904140109 75 171 0.0 1.0 0.00 0.26 0.26 91 1012.5
20260904135609 74 209 0.0 1.0 0.00 0.26 0.26 92 1012.6